TimeCET,TemperatureF,Dew PointF,Humidity,Sea Level PressureIn,VisibilityMPH,Wind Direction,Wind SpeedMPH,Gust SpeedMPH,PrecipitationIn,Events,Conditions,WindDirDegrees,DateUTC
12:00 AM,55.4,41.0,58,29.36,6.2,West,29.9,47.2,N/A,,Overcast,270,2012-10-27 22:00:00
12:30 AM,53.6,39.2,58,29.36,6.2,West,19.6,38.0,N/A,,Overcast,280,2012-10-27 22:30:00
1:00 AM,53.6,41.0,62,29.39,6.2,West,25.3,42.6,N/A,,Overcast,260,2012-10-27 23:00:00
1:30 AM,53.6,39.2,58,29.39,6.2,West,21.9,39.1,N/A,,Overcast,270,2012-10-27 23:30:00
2:00 AM,53.6,39.2,58,29.39,6.2,West,25.3,40.3,N/A,,Overcast,260,2012-10-28 00:00:00
2:30 AM,53.6,39.2,58,29.39,6.2,West,27.6,48.3,N/A,,Overcast,270,2012-10-28 00:30:00
2:00 AM,51.8,37.4,58,29.42,6.2,West,28.8,43.7,N/A,,Overcast,270,2012-10-28 01:00:00
2:30 AM,51.8,37.4,58,29.42,6.2,West,25.3,39.1,N/A,,Overcast,270,2012-10-28 01:30:00
3:00 AM,51.8,35.6,54,29.42,6.2,West,26.5,41.4,N/A,,Overcast,270,2012-10-28 02:00:00
3:30 AM,51.8,33.8,50,29.44,6.2,West,29.9,43.7,N/A,,Overcast,270,2012-10-28 02:30:00
4:00 AM,51.8,33.8,50,29.44,6.2,West,29.9,-,N/A,,Overcast,270,2012-10-28 03:00:00
4:30 AM,51.8,33.8,50,29.44,6.2,West,27.6,41.4,N/A,,Overcast,270,2012-10-28 03:30:00
5:00 AM,51.8,32.0,47,29.44,6.2,West,27.6,46.0,N/A,,Mostly Cloudy,280,2012-10-28 04:00:00
5:30 AM,51.8,32.0,47,29.44,6.2,West,25.3,40.3,N/A,,Mostly Cloudy,270,2012-10-28 04:30:00
6:00 AM,51.8,26.6,38,29.44,6.2,West,27.6,41.4,N/A,,Overcast,270,2012-10-28 05:00:00
6:30 AM,50.0,37.4,62,29.44,6.2,West,23.0,41.4,N/A,,Mostly Cloudy,270,2012-10-28 05:30:00
7:00 AM,48.2,39.2,71,29.44,6.2,WSW,19.6,-,N/A,,Overcast,250,2012-10-28 06:00:00
7:30 AM,51.8,33.8,50,29.44,6.2,West,27.6,41.4,N/A,,Overcast,270,2012-10-28 06:30:00
8:00 AM,53.6,32.0,44,29.47,6.2,West,26.5,42.6,N/A,,Mostly Cloudy,260,2012-10-28 07:00:00
8:30 AM,51.8,32.0,47,29.47,6.2,West,29.9,42.6,N/A,,Overcast,260,2012-10-28 07:30:00
9:00 AM,53.6,35.6,51,29.47,6.2,West,25.3,38.0,N/A,,Mostly Cloudy,260,2012-10-28 08:00:00
9:30 AM,51.8,33.8,50,29.47,6.2,West,26.5,44.9,N/A,,Mostly Cloudy,260,2012-10-28 08:30:00
10:00 AM,50.0,41.0,71,29.47,6.2,West,27.6,48.3,N/A,Rain,Light Rain,280,2012-10-28 09:00:00
10:30 AM,50.0,41.0,71,29.47,6.2,West,28.8,44.9,N/A,,Mostly Cloudy,280,2012-10-28 09:30:00
11:00 AM,50.0,37.4,62,29.50,6.2,West,28.8,46.0,N/A,,Mostly Cloudy,270,2012-10-28 10:00:00
11:30 AM,51.8,37.4,58,29.50,6.2,West,28.8,41.4,N/A,,Mostly Cloudy,270,2012-10-28 10:30:00
12:00 PM,48.2,39.2,71,29.50,6.2,West,23.0,41.4,N/A,Rain,Light Rain,270,2012-10-28 11:00:00
12:30 PM,46.4,39.2,76,29.50,6.2,West,18.4,29.9,N/A,Rain,Light Rain,260,2012-10-28 11:30:00
1:00 PM,46.4,39.2,76,29.50,3.7,West,16.1,31.1,N/A,Rain,Light Rain,260,2012-10-28 12:00:00
1:30 PM,48.2,37.4,66,29.50,6.2,West,24.2,39.1,N/A,,Mostly Cloudy,270,2012-10-28 12:30:00
2:00 PM,50.0,37.4,62,29.50,6.2,West,20.7,35.7,N/A,,Mostly Cloudy,260,2012-10-28 13:00:00
2:30 PM,46.4,39.2,76,29.50,3.7,West,26.5,40.3,N/A,Rain,Light Rain,260,2012-10-28 13:30:00
3:00 PM,46.4,39.2,76,29.47,5.0,WSW,23.0,34.5,N/A,Rain,Light Rain,250,2012-10-28 14:00:00
3:30 PM,48.2,39.2,71,29.47,6.2,West,27.6,42.6,N/A,Rain,Light Rain,270,2012-10-28 14:30:00
4:00 PM,48.2,39.2,71,29.47,6.2,West,24.2,38.0,N/A,,Mostly Cloudy,260,2012-10-28 15:00:00
4:30 PM,48.2,39.2,71,29.47,6.2,West,23.0,41.4,N/A,,Mostly Cloudy,260,2012-10-28 15:30:00
5:00 PM,48.2,39.2,71,29.47,6.2,West,21.9,38.0,N/A,,Mostly Cloudy,260,2012-10-28 16:00:00
5:30 PM,48.2,41.0,76,29.47,6.2,WSW,24.2,40.3,N/A,Rain,Light Rain,250,2012-10-28 16:30:00
6:00 PM,48.2,41.0,76,29.47,6.2,WSW,25.3,40.3,N/A,,Mostly Cloudy,240,2012-10-28 17:00:00
6:30 PM,48.2,37.4,66,29.50,6.2,West,19.6,-,N/A,Rain,Light Rain,270,2012-10-28 17:30:00
7:00 PM,50.0,39.2,66,29.50,6.2,West,20.7,-,N/A,,Mostly Cloudy,270,2012-10-28 18:00:00
7:30 PM,50.0,39.2,66,29.50,6.2,West,13.8,-,N/A,,Mostly Cloudy,280,2012-10-28 18:30:00
8:00 PM,50.0,39.2,66,29.50,6.2,West,17.3,-,N/A,Rain,Light Rain,280,2012-10-28 19:00:00
8:30 PM,48.2,39.2,71,29.53,6.2,WNW,16.1,33.4,N/A,,Mostly Cloudy,290,2012-10-28 19:30:00
9:00 PM,46.4,41.0,81,29.53,-9999.0,WNW,19.6,-,N/A,Rain-Thunderstorm,Rain,300,2012-10-28 20:00:00
9:30 PM,44.6,41.0,87,29.53,6.2,Variable,3.5,-,N/A,,Mostly Cloudy,0,2012-10-28 20:30:00
10:00 PM,48.2,42.8,82,29.53,6.2,West,9.2,-,N/A,,Overcast,280,2012-10-28 21:00:00
10:30 PM,48.2,41.0,76,29.56,6.2,West,9.2,-,N/A,,Mostly Cloudy,270,2012-10-28 21:30:00